Location: Moscow
(30.9132°N, 94.8252°W)
Time: 07:59:35
(UTC+00:00)

Cosmos 2058 - Pass Details

Date: 15 November 2025
Orbit: 529 x 540 km, 82.5° (Epoch: 13 December)

Event Time Altitude Azimuth Distance (km) Brightness Sun altitude
Rises 00:29:40 0° 5° (N) 2,696 6.2 -14.7°
Reaches altitude 10° 00:31:58 10° 14° (NNE) 1,803 5.2 -15.2°
Maximum altitude 00:35:36 34° 81° (E) 902 3.3 -16.0°
Drops below altitude 10° 00:39:13 10° 147° (SSE) 1,798 5.2 -16.7°
Sets 00:41:30 0° 156° (SSE) 2,686 6.2 -17.2°
